Skip Page Navigation
NASA JPL Caltech
NASA Logo - Jet Propulsion Laboratory + View the NASA Portal
+ Near-Earth Object (NEO) Program
Search JPL
JPL Home Earth Solar System Stars & Galaxies Technology
JPL Solar System Dynamics
BODIES ORBITS EPHEMERIDES TOOLS PHYSICAL DATA DISCOVERY FAQ SITE MAP
JPL Small-Body Database Browser
Search: [ help ]  
12711 Tukmit (1991 BB)
Classification: Apollo [NEO]          SPK-ID: 2012711
Ephemeris | Orbit Diagram | Orbital Elements | Physical Parameters | Discovery Circumstances | Close-Approach Data ]

[ show orbit diagram ]
Orbital Elements at Epoch 2456400.5 (2013-Apr-18.0) TDB
Reference: JPL 122 (heliocentric ecliptic J2000)
 Element Value Uncertainty (1-sigma)   Units 
e .272339489113939 5.9526e-08  
a 1.186378629094516 2.3551e-09 AU
q .8632808793512203 7.119e-08 AU
i 38.48670709323409 1.3264e-05 deg
node 294.9965033540258 7.7565e-06 deg
peri 322.8730799920528 1.6245e-05 deg
M 327.6264513838365 1.6282e-05 deg
tp 2456442.944478850275
(2013-May-30.44447885)
2.1381e-05 JED
period 471.9906540758424
1.29
1.4055e-06
3.848e-09
d
yr
n .7627269669245462 2.2712e-09 deg/d
Q 1.509476378837812 2.9965e-09 AU
  Orbit Determination Parameters
   # obs. used (total)      801  
   # delay obs. used      0  
   # Doppler obs. used      3  
   data-arc span      8125 days (22.25 yr)  
   first obs. used      1991-01-12  
   last obs. used      2013-04-11  
   planetary ephem.      DE405  
   SB-pert. ephem.      SB405-CPV-2  
   condition code      0  
   fit RMS      .49322  
   data source      ORB  
   producer      Otto Matic  
   solution date      2013-May-02 01:50:43  

Additional Information
 Earth MOID = .110974 AU 
 T_jup = 5.105 
[ show covariance matrix ]

Ephemeris | Orbit Diagram | Orbital Elements | Physical Parameters | Discovery Circumstances | Close-Approach Data ]

Physical Parameter Table
Parameter Symbol Value Units Sigma Reference Notes
absolute magnitude H 16.0 mag n/a PDS3 (MPC 37041)  
rotation period rot_per 3.4848 h n/a Asteroid Lightcurve DataBase (Rev. 2013-May-01) Incomplete or inconclusive result.
Published Reference List:
[Pravec, P.; Wolf, M.; Sarounova, L. (2000) http://www.asu.cas.cz/~ppravec/neo.htm]
SMASSII spectral type spec_B Sr   n/a EAR-A-5-DDR-TAXONOMY-V4.0 based on a high-resolution spectrum by Xu et al. (1995) or Bus and Binzel (2002)

12711 Tukmit           Discovered 1991 Jan. 19 by J. E. Mueller at Palomar.
Tukmit is Father Sky in the Luiseno creation story. He was made from nothingness and together with Tomaiyavit bore the First People. The First People became all the people, animals, plants and inanimate objects of the earth, the basis of Luiseno existence.
NOTE: some special characters may not display properly (any characters within {} are an attempt to place the proper accent above a character)
Reference: 20081113/MPCPages.arcLast Updated: 2008-11-17

[ show close-approach data ]
Ephemeris | Orbit Diagram | Orbital Elements | Physical Parameters | Discovery Circumstances | Close-Approach Data ]
ABOUT SSD CREDITS/AWARDS PRIVACY/COPYRIGHT GLOSSARY LINKS
FirstGov 2013-May-21 16:28 UT
(server date/time)  
NASA Home Page
Site Manager:   Donald K. Yeomans
Webmaster  Alan B. Chamberlin